Weather in Hosta

Russia / Krasnodar Krai     43°30′46″N   39°52′25″E
temp.,
°C
wind,
m/s
gust,
m/s
humid.,
%
clouds,
%
prec.,
mm/h
press.,
hPa
HPBL,
m
6 may, thu
thu600:00+13e33825 0.0 1015177
03:00+13ne2278100 0.0 101395
06:00+14nne227260 0.0 101381
09:00+15nw336847 0.0 101265
12:00+15nw4577100 0.0 1012113
15:00+15nw567699 0.0 1012113
18:00+16nw457699 0.0 101156
21:00+15nw458087 0.0 101364
7 may, fri
fri700:00+15wnw337498 0.0 101429
03:00+15ese227148 0.0 101617
06:00+15se477799 0.0 1017246
09:00+15se79875 0.0 1018370
12:00+15sse68885 0.0 1019319
15:00+15sse46815 0.0 1018215
18:00+15se34767 0.0 1018112
21:00+15ese33772 0.0 101948
8 may, sat
sat800:00+15e33771 0.0 101864
03:00+15e237548 0.0 101642
06:00+15ene3370100 0.0 101549
09:00+16sse1167100 0.0 101426
12:00+16e1166100 0.0 101347
15:00+19wsw116410 0.0 101243
18:00+20nne22595 0.0 101020
21:00+18nne226437 0.0 101012
9 may, sun
sun900:00+17w4669100 0.0 101153
03:00+16ssw3376100 0.0 101225
06:00+15sse3384100 0.1 101469
09:00+14ssw6997100 7.8 1015577
12:00+13nw91082100 6.3 1018765
15:00+12wnw6773100 6.8 10221015
18:00+12nw5572100 0.3 1024935
21:00+11nw66705 0.4 1026687
10 may, mon
mon1000:00+10nnw45741 0.0 1025442
03:00+10nnw467073 0.0 1025488
06:00+10ene3269100 0.1 1025148
09:00+11w116441 0.3 1024267
12:00+12w236298 0.1 1024558
15:00+13w2259100 0.8 1024412
18:00+13w1257100 0.8 1023215
21:00+11ne5471100 1.8 1023344